Torna al catalogo

STARLINK-5124

AttivoComunicazioniVLEO
NORAD 54011·PAYLOAD·🇺🇸 United States

Lanciato Oct 5, 2022 da Vandenberg Space Force Base

Loading…

Prossimi Passaggi (prossime 24 ore)

TLE

AggiornatoSource: CelesTrak SupGP

Epoca: Sep 15, 2026, 02:14 UTC

1 54011C 22125AZ  26258.09354167 -.00048821  00000+0 -14428-2 0  2584
2 54011  53.1597  62.7515 0001161  83.0074   2.7060 15.34407558    18

Traccia STARLINK-5124 in tempo reale con AllMySat

Download on the App Store